Location: Newark
(31.8769°N, 91.1411°W)
Time: 00:00:20
(UTC+00:00)

N. Korean satellite - Pass Details

Date: 26 January 2020
Orbit: 456 x 505 km, 97.2° (Epoch: 24 February)

Event Time Altitude Azimuth Distance (km) Brightness Sun altitude
Rises 00:07:58 0° 208° (SSW) 2,462 10.9 -8.0°
Reaches altitude 10° 00:11:01 10° 240° (WSW) 1,591 10.7 -8.7°
Maximum altitude 00:12:30 12° 266° (W) 1,453 10.4 -9.0°
Drops below altitude 10° 00:14:00 10° 292° (WNW) 1,595 10.0 -9.3°
Sets 00:17:05 0° 323° (NW) 2,476 10.4 -9.9°
